Location: Devore Heights
(34.2372°N, 117.4156°W)
Time: 18:51:56
(UTC+00:00)

Vanguard 1 Rocket - Pass Details

Date: 16 September 2024
Orbit: 650 x 4218 km, 34.3° (Epoch: 04 October)

Event Time Altitude Azimuth Distance (km) Brightness Sun altitude
Rises 18:39:41 0° 289° (WNW) 8,196 12.0 54.6°
Reaches altitude 10° 18:46:01 10° 281° (WNW) 7,355 11.9 55.2°
Maximum altitude 19:07:16 34° 227° (SW) 5,277 12.0 56.8°
Drops below altitude 10° 19:24:14 10° 170° (S) 5,829 12.2 57.6°
Sets 19:28:37 0° 161° (SSE) 6,386 12.2 57.8°
